Weather History for Torrington, WY

Change the Weather History Date:

Friday, January 24, 2014

  Actual Average Record
Temperature  
Mean Temperature 39 °F 29 °F  
Max Temperature 53 °F 43 °F 63 °F (2005)
Min Temperature 24 °F 15 °F -11 °F (2008)
Degree Days  
Heating Degree Days 26 36  
Month to date heating degree days 829 887  
Since 1 July heating degree days 3595 3643  
Cooling Degree Days 0 0  
Month to date cooling degree days 0 0  
Year to date cooling degree days 0 0  
Moisture  
Dew Point 12 °F    
Average Humidity 38    
Maximum Humidity 54    
Minimum Humidity 21    
Precipitation  
Precipitation 0.00 in 0.01 in 0.04 in (2009)
Month to date precipitation 0.12 0.20  
Year to date precipitation 0.12 0.20  
Sea Level Pressure  
Sea Level Pressure 30.19 in    
Wind  
Wind Speed 16 mph (WNW)    
Max Wind Speed 29 mph    
Max Gust Speed 35 mph    
Visibility 10 miles    
Events      
T = Trace of Precipitation, MM = Missing Value Source: NWS Daily Summary

Daily Weather History Graph

Daily Weather History Graph

Search for Another Location

Airport:

Trip Planner

Search our weather history database for the weather conditions in past years. The results will help you decide how hot, cold, wet, or windy it might be!

Date:

Astronomy

Jan. 24, 2014 Rise Set
Actual Time 7:16 AM MST 5:01 PM MST
Civil Twilight 6:46 AM MST 5:31 PM MST
Nautical Twilight 6:12 AM MST 6:05 PM MST
Astronomical Twilight 5:39 AM MST 6:38 PM MST
Moon 12:45 AM MST (1/24) 11:22 AM MST (1/24)
Length of Visible Light 10h 44m
Length of Day
9h 44m
Last Quarter, 44% of the Moon is Illuminated
Jan 24
Last Quarter
Jan 30
New
Feb 6
First Quarter
Feb 14
Full
Feb 22
Last Quarter

Hourly Weather History & Observations

Time (MST) Temp. Windchill Dew Point Humidity Pressure Visibility Wind Dir Wind Speed Gust Speed Precip Events Conditions
12:53 AM 28.9 °F 18.2 °F 9.0 °F 43% 30.28 in 10.0 mi West 13.8 mph 20.7 mph N/A   Clear
1:53 AM 32.0 °F 20.1 °F 7.0 °F 35% 30.27 in 10.0 mi West 19.6 mph 26.5 mph N/A   Clear
2:53 AM 30.0 °F 18.7 °F 7.0 °F 38% 30.28 in 10.0 mi WNW 16.1 mph 25.3 mph N/A   Clear
3:53 AM 28.0 °F 20.8 °F 6.1 °F 39% 30.29 in 10.0 mi West 6.9 mph - N/A   Clear
4:53 AM 30.9 °F 20.2 °F 6.1 °F 35% 30.29 in 10.0 mi WNW 15.0 mph 23.0 mph N/A   Mostly Cloudy
5:53 AM 30.9 °F 22.8 °F 7.0 °F 37% 30.30 in 10.0 mi WNW 9.2 mph - N/A   Overcast
6:53 AM 33.1 °F 21.9 °F 7.0 °F 34% 30.29 in 10.0 mi West 18.4 mph 25.3 mph N/A   Mostly Cloudy
7:53 AM 34.0 °F 23.4 °F 6.1 °F 31% 30.28 in 10.0 mi WNW 17.3 mph 23.0 mph N/A   Mostly Cloudy
8:53 AM 37.0 °F 28.9 °F 7.0 °F 29% 30.28 in 10.0 mi WNW 12.7 mph - N/A   Overcast
9:53 AM 43.0 °F 34.5 °F 8.1 °F 24% 30.25 in 10.0 mi West 19.6 mph 26.5 mph N/A   Clear
10:53 AM 45.0 °F 37.4 °F 10.9 °F 25% 30.23 in 10.0 mi West 18.4 mph 31.1 mph N/A   Mostly Cloudy
11:53 AM 46.9 °F - 12.9 °F 25% 30.17 in 10.0 mi West 24.2 mph 29.9 mph N/A   Clear
12:53 PM 50.0 °F - 12.9 °F 23% 30.12 in 10.0 mi West 24.2 mph 32.2 mph N/A   Partly Cloudy
1:53 PM 48.9 °F - 12.0 °F 23% 30.08 in 10.0 mi West 21.9 mph 33.4 mph N/A   Clear
2:53 PM 52.0 °F - 15.1 °F 23% 30.07 in 10.0 mi West 20.7 mph 31.1 mph N/A   Clear
3:53 PM 50.0 °F - 16.0 °F 26% 30.07 in 10.0 mi West 21.9 mph 33.4 mph N/A   Partly Cloudy
4:53 PM 48.0 °F - 16.0 °F 28% 30.07 in 10.0 mi West 16.1 mph 33.4 mph N/A   Scattered Clouds
5:53 PM 43.0 °F 36.4 °F 15.1 °F 32% 30.11 in 10.0 mi WNW 12.7 mph - N/A   Clear
6:53 PM 39.9 °F 35.1 °F 16.0 °F 38% 30.14 in 10.0 mi NNW 6.9 mph - N/A   Clear
7:53 PM 41.0 °F 35.8 °F 17.1 °F 38% 30.14 in 10.0 mi NW 8.1 mph - N/A   Clear
8:53 PM 36.0 °F 29.0 °F 17.1 °F 46% 30.15 in 10.0 mi NNW 9.2 mph - N/A   Clear
9:53 PM 39.9 °F 31.8 °F 17.1 °F 40% 30.12 in 10.0 mi WNW 15.0 mph - N/A   Clear
10:53 PM 39.9 °F 32.5 °F 17.1 °F 40% 30.13 in 10.0 mi West 12.7 mph 18.4 mph N/A   Mostly Cloudy
11:53 PM 42.1 °F 34.5 °F 15.1 °F 34% 30.12 in 10.0 mi WNW 15.0 mph - N/A   Overcast